sat.trackr.live / text

‹ back to catalog

STARLINK-32301

NORAD 61664 · 2024-193D

PAYLOAD ACTIVE UNKNOWN

§ Identity

Operator
Country
US
Launch date
2024-10-26
Launch site
AFETR
Launch vehicle
Mass (kg)
RCS (m²)

Purposes: comms

External: N2YO · Heavens-Above · Gunter

§ Orbital elements

Epoch: 2026-09-21T08:45:37.505952Z

Period
94.01 min
Inclination
53.1598°
Eccentricity
0.0001417
Mean motion
15.31703895 rev/d
Perigee alt
469.8 km
Apogee alt
471.7 km
Semi-major
6,848.9 km
B*
2.2422e-5
RAAN
260.8271°
Arg perigee
81.2065°
Mean anomaly
278.9097°
Rev number
10,650

§ Raw data

STARLINK-323011 61664U 24193D   26264.36501743  .00000331  00000+0  22422-4 0  99932 61664  53.1598 260.8271 0001417  81.2065 278.9097 15.31703895106503

JSON: /api/v1/satellites/61664 · /tle

For live sub-satellite position, see the globe view (requires WebGL).

§ Visibility from observer

Set your observer location to see the next 7 days of passes ≥ 10°. The values pass through the URL so the page stays shareable.

No JS? Fill the form by hand. The geolocation button needs JavaScript.